owner,sensor,date,latitude,longitude,air_pressure(mBar),qcFlag 
WAVCIS,ioos:station:WAVCIS:CSI09:1,2010-11-01T00:00:00Z,29.1015,-89.9782,1016.63,11111222 
WAVCIS,ioos:station:WAVCIS:CSI09:1,2010-11-01T01:00:00Z,29.1015,-89.9782,1017.02,11111222 
WAVCIS,ioos:station:WAVCIS:CSI09:1,2010-11-01T02:00:00Z,29.1015,-89.9782,1017.5,11111222 
WAVCIS,ioos:station:WAVCIS:CSI09:1,2010-11-01T03:00:00Z,29.1015,-89.9782,1017.8,11111222 
WAVCIS,ioos:station:WAVCIS:CSI09:1,2010-11-01T04:00:00Z,29.1015,-89.9782,1018.07,11111222 
WAVCIS,ioos:station:WAVCIS:CSI09:1,2010-11-01T05:00:00Z,29.1015,-89.9782,1017.72,11111222 
WAVCIS,ioos:station:WAVCIS:CSI09:1,2010-11-01T06:00:00Z,29.1015,-89.9782,1017.83,11111222 
WAVCIS,ioos:station:WAVCIS:CSI09:1,2010-11-01T07:00:00Z,29.1015,-89.9782,1017.69,11111222 
WAVCIS,ioos:station:WAVCIS:CSI09:1,2010-11-01T08:00:00Z,29.1015,-89.9782,1017.29,11111222 
WAVCIS,ioos:station:WAVCIS:CSI09:1,2010-11-01T09:00:00Z,29.1015,-89.9782,1017.08,11111222 
WAVCIS,ioos:station:WAVCIS:CSI09:1,2010-11-01T10:00:00Z,29.1015,-89.9782,1017.2,11111222 
WAVCIS,ioos:station:WAVCIS:CSI09:1,2010-11-01T11:00:00Z,29.1015,-89.9782,1017.96,11111222 
WAVCIS,ioos:station:WAVCIS:CSI09:1,2010-11-01T12:00:00Z,29.1015,-89.9782,1018.56,11111222 
WAVCIS,ioos:station:WAVCIS:CSI09:1,2010-11-01T13:00:00Z,29.1015,-89.9782,1019.26,11111222 
WAVCIS,ioos:station:WAVCIS:CSI09:1,2010-11-01T14:00:00Z,29.1015,-89.9782,1019.85,11111222 
WAVCIS,ioos:station:WAVCIS:CSI09:1,2010-11-01T15:00:00Z,29.1015,-89.9782,1020.08,11111222 
WAVCIS,ioos:station:WAVCIS:CSI09:1,2010-11-01T16:00:00Z,29.1015,-89.9782,1020.09,11111222 
WAVCIS,ioos:station:WAVCIS:CSI09:1,2010-11-01T17:00:00Z,29.1015,-89.9782,1019.15,11111222 
WAVCIS,ioos:station:WAVCIS:CSI09:1,2010-11-01T18:00:00Z,29.1015,-89.9782,1018.75,11111222 
WAVCIS,ioos:station:WAVCIS:CSI09:1,2010-11-01T19:00:00Z,29.1015,-89.9782,1017.86,11111222 
WAVCIS,ioos:station:WAVCIS:CSI09:1,2010-11-01T20:00:00Z,29.1015,-89.9782,1017.63,11111222 
WAVCIS,ioos:station:WAVCIS:CSI09:1,2010-11-01T21:00:00Z,29.1015,-89.9782,1017.39,11111222 
WAVCIS,ioos:station:WAVCIS:CSI09:1,2010-11-01T22:00:00Z,29.1015,-89.9782,1017.03,11111222 
WAVCIS,ioos:station:WAVCIS:CSI09:1,2010-11-01T23:00:00Z,29.1015,-89.9782,1017.27,11111222 
WAVCIS,ioos:station:WAVCIS:CSI09:1,2010-11-02T00:00:00Z,29.1015,-89.9782,1017.96,11111222 
WAVCIS,ioos:station:WAVCIS:CSI09:1,2010-11-02T01:00:00Z,29.1015,-89.9782,1018.41,11111222 
WAVCIS,ioos:station:WAVCIS:CSI09:1,2010-11-02T02:00:00Z,29.1015,-89.9782,1018.76,11111222 
WAVCIS,ioos:station:WAVCIS:CSI09:1,2010-11-02T03:00:00Z,29.1015,-89.9782,1019.04,11111222 
WAVCIS,ioos:station:WAVCIS:CSI09:1,2010-11-02T04:00:00Z,29.1015,-89.9782,1019.16,11111222 
WAVCIS,ioos:station:WAVCIS:CSI09:1,2010-11-02T05:00:00Z,29.1015,-89.9782,1018.24,11111222 
WAVCIS,ioos:station:WAVCIS:CSI09:1,2010-11-02T06:00:00Z,29.1015,-89.9782,1016.6,11111222 
WAVCIS,ioos:station:WAVCIS:CSI09:1,2010-11-02T07:00:00Z,29.1015,-89.9782,1014.89,11111222 
WAVCIS,ioos:station:WAVCIS:CSI09:1,2010-11-02T08:00:00Z,29.1015,-89.9782,1015.01,11111222 
WAVCIS,ioos:station:WAVCIS:CSI09:1,2010-11-02T09:00:00Z,29.1015,-89.9782,1015.22,11111222 
WAVCIS,ioos:station:WAVCIS:CSI09:1,2010-11-02T10:00:00Z,29.1015,-89.9782,1015.17,11111222 
WAVCIS,ioos:station:WAVCIS:CSI09:1,2010-11-02T11:00:00Z,29.1015,-89.9782,1015.5,11111222 
WAVCIS,ioos:station:WAVCIS:CSI09:1,2010-11-02T12:00:00Z,29.1015,-89.9782,1015.19,11111222 
WAVCIS,ioos:station:WAVCIS:CSI09:1,2010-11-02T13:00:00Z,29.1015,-89.9782,1015.09,11111222 
WAVCIS,ioos:station:WAVCIS:CSI09:1,2010-11-02T14:00:00Z,29.1015,-89.9782,1014.81,11111222 
WAVCIS,ioos:station:WAVCIS:CSI09:1,2010-11-02T15:00:00Z,29.1015,-89.9782,1014.77,11111222 
WAVCIS,ioos:station:WAVCIS:CSI09:1,2010-11-02T16:00:00Z,29.1015,-89.9782,1014.86,11111222 
WAVCIS,ioos:station:WAVCIS:CSI09:1,2010-11-02T17:00:00Z,29.1015,-89.9782,1013.88,11111222 
WAVCIS,ioos:station:WAVCIS:CSI09:1,2010-11-02T18:00:00Z,29.1015,-89.9782,1012.94,11111222 
WAVCIS,ioos:station:WAVCIS:CSI09:1,2010-11-02T19:00:00Z,29.1015,-89.9782,1011.69,11111222 
WAVCIS,ioos:station:WAVCIS:CSI09:1,2010-11-02T20:00:00Z,29.1015,-89.9782,1011.79,11111222 
WAVCIS,ioos:station:WAVCIS:CSI09:1,2010-11-02T21:00:00Z,29.1015,-89.9782,1010.95,11111222 
WAVCIS,ioos:station:WAVCIS:CSI09:1,2010-11-02T22:00:00Z,29.1015,-89.9782,1010.81,11111222 
WAVCIS,ioos:station:WAVCIS:CSI09:1,2010-11-02T23:00:00Z,29.1015,-89.9782,1010.95,11111222 
WAVCIS,ioos:station:WAVCIS:CSI09:1,2010-11-03T00:00:00Z,29.1015,-89.9782,1010.74,11111222 
WAVCIS,ioos:station:WAVCIS:CSI09:1,2010-11-03T01:00:00Z,29.1015,-89.9782,1010.68,11111222 
WAVCIS,ioos:station:WAVCIS:CSI09:1,2010-11-03T02:00:00Z,29.1015,-89.9782,1010.43,11111222 
WAVCIS,ioos:station:WAVCIS:CSI09:1,2010-11-03T03:00:00Z,29.1015,-89.9782,1011.07,11111222 
WAVCIS,ioos:station:WAVCIS:CSI09:1,2010-11-03T04:00:00Z,29.1015,-89.9782,1011.57,11111222 
WAVCIS,ioos:station:WAVCIS:CSI09:1,2010-11-03T05:00:00Z,29.1015,-89.9782,1011.23,11111222 
WAVCIS,ioos:station:WAVCIS:CSI09:1,2010-11-03T06:00:00Z,29.1015,-89.9782,1010.68,11111222 
WAVCIS,ioos:station:WAVCIS:CSI09:1,2010-11-03T07:00:00Z,29.1015,-89.9782,1010.1,11111222 
WAVCIS,ioos:station:WAVCIS:CSI09:1,2010-11-03T08:00:00Z,29.1015,-89.9782,1009.37,11111222 
WAVCIS,ioos:station:WAVCIS:CSI09:1,2010-11-03T09:00:00Z,29.1015,-89.9782,1008.39,11111222 
WAVCIS,ioos:station:WAVCIS:CSI09:1,2010-11-03T10:00:00Z,29.1015,-89.9782,1008.42,11111222 
WAVCIS,ioos:station:WAVCIS:CSI09:1,2010-11-03T11:00:00Z,29.1015,-89.9782,1009.05,11111222 
WAVCIS,ioos:station:WAVCIS:CSI09:1,2010-11-03T12:00:00Z,29.1015,-89.9782,1009.1,11111222 
WAVCIS,ioos:station:WAVCIS:CSI09:1,2010-11-03T13:00:00Z,29.1015,-89.9782,1008.86,11111222 
WAVCIS,ioos:station:WAVCIS:CSI09:1,2010-11-03T14:00:00Z,29.1015,-89.9782,1009.42,11111222 
WAVCIS,ioos:station:WAVCIS:CSI09:1,2010-11-03T15:00:00Z,29.1015,-89.9782,1009.41,11111222 
WAVCIS,ioos:station:WAVCIS:CSI09:1,2010-11-03T16:00:00Z,29.1015,-89.9782,1009.65,11111222 
WAVCIS,ioos:station:WAVCIS:CSI09:1,2010-11-03T17:00:00Z,29.1015,-89.9782,1009.32,11111222 
WAVCIS,ioos:station:WAVCIS:CSI09:1,2010-11-03T18:00:00Z,29.1015,-89.9782,1008.71,11111222 
WAVCIS,ioos:station:WAVCIS:CSI09:1,2010-11-03T19:00:00Z,29.1015,-89.9782,1007.92,11111222 
WAVCIS,ioos:station:WAVCIS:CSI09:1,2010-11-03T20:00:00Z,29.1015,-89.9782,1007.22,11111222 
WAVCIS,ioos:station:WAVCIS:CSI09:1,2010-11-03T21:00:00Z,29.1015,-89.9782,1006.828,11111222 
WAVCIS,ioos:station:WAVCIS:CSI09:1,2010-11-03T22:00:00Z,29.1015,-89.9782,1007.045,11111222 
WAVCIS,ioos:station:WAVCIS:CSI09:1,2010-11-03T23:00:00Z,29.1015,-89.9782,1006.962,11111222 
WAVCIS,ioos:station:WAVCIS:CSI09:1,2010-11-04T00:00:00Z,29.1015,-89.9782,1007.039,11111222 
WAVCIS,ioos:station:WAVCIS:CSI09:1,2010-11-04T01:00:00Z,29.1015,-89.9782,1007.37,11111222 
WAVCIS,ioos:station:WAVCIS:CSI09:1,2010-11-04T02:00:00Z,29.1015,-89.9782,1007.4,11111222 
WAVCIS,ioos:station:WAVCIS:CSI09:1,2010-11-04T03:00:00Z,29.1015,-89.9782,1007.57,11111222 
WAVCIS,ioos:station:WAVCIS:CSI09:1,2010-11-04T04:00:00Z,29.1015,-89.9782,1007.28,11111222 
WAVCIS,ioos:station:WAVCIS:CSI09:1,2010-11-04T05:00:00Z,29.1015,-89.9782,1006.967,11111222 
WAVCIS,ioos:station:WAVCIS:CSI09:1,2010-11-04T06:00:00Z,29.1015,-89.9782,1006.645,11111222 
WAVCIS,ioos:station:WAVCIS:CSI09:1,2010-11-04T07:00:00Z,29.1015,-89.9782,1006.173,11111222 
WAVCIS,ioos:station:WAVCIS:CSI09:1,2010-11-04T08:00:00Z,29.1015,-89.9782,1005.411,11111222 
WAVCIS,ioos:station:WAVCIS:CSI09:1,2010-11-04T09:00:00Z,29.1015,-89.9782,1004.738,11111222 
WAVCIS,ioos:station:WAVCIS:CSI09:1,2010-11-04T10:00:00Z,29.1015,-89.9782,1005.063,11111222 
WAVCIS,ioos:station:WAVCIS:CSI09:1,2010-11-04T11:00:00Z,29.1015,-89.9782,1005.499,11111222 
WAVCIS,ioos:station:WAVCIS:CSI09:1,2010-11-04T12:00:00Z,29.1015,-89.9782,1005.877,11111222 
WAVCIS,ioos:station:WAVCIS:CSI09:1,2010-11-04T13:00:00Z,29.1015,-89.9782,1006.809,11111222 
WAVCIS,ioos:station:WAVCIS:CSI09:1,2010-11-04T14:00:00Z,29.1015,-89.9782,1007.44,11111222 
WAVCIS,ioos:station:WAVCIS:CSI09:1,2010-11-04T15:00:00Z,29.1015,-89.9782,1008.25,11111222 
WAVCIS,ioos:station:WAVCIS:CSI09:1,2010-11-04T16:00:00Z,29.1015,-89.9782,1008.61,11111222 
WAVCIS,ioos:station:WAVCIS:CSI09:1,2010-11-04T17:00:00Z,29.1015,-89.9782,1008.69,11111222 
WAVCIS,ioos:station:WAVCIS:CSI09:1,2010-11-04T18:00:00Z,29.1015,-89.9782,1008.41,11111222 
WAVCIS,ioos:station:WAVCIS:CSI09:1,2010-11-04T19:00:00Z,29.1015,-89.9782,1007.87,11111222 
WAVCIS,ioos:station:WAVCIS:CSI09:1,2010-11-04T20:00:00Z,29.1015,-89.9782,1008.05,11111222 
WAVCIS,ioos:station:WAVCIS:CSI09:1,2010-11-04T21:00:00Z,29.1015,-89.9782,1008.2,11111222 
WAVCIS,ioos:station:WAVCIS:CSI09:1,2010-11-04T22:00:00Z,29.1015,-89.9782,1008.88,11111222 
WAVCIS,ioos:station:WAVCIS:CSI09:1,2010-11-04T23:00:00Z,29.1015,-89.9782,1009.43,11111222 
WAVCIS,ioos:station:WAVCIS:CSI09:1,2010-11-05T00:00:00Z,29.1015,-89.9782,1010.55,11111222 
WAVCIS,ioos:station:WAVCIS:CSI09:1,2010-11-05T01:00:00Z,29.1015,-89.9782,1011.81,11111222 
WAVCIS,ioos:station:WAVCIS:CSI09:1,2010-11-05T02:00:00Z,29.1015,-89.9782,1012.64,11111222 
WAVCIS,ioos:station:WAVCIS:CSI09:1,2010-11-05T03:00:00Z,29.1015,-89.9782,1013.48,11111222 
WAVCIS,ioos:station:WAVCIS:CSI09:1,2010-11-05T04:00:00Z,29.1015,-89.9782,1014.04,11111222 
WAVCIS,ioos:station:WAVCIS:CSI09:1,2010-11-05T05:00:00Z,29.1015,-89.9782,1014.18,11111222 
WAVCIS,ioos:station:WAVCIS:CSI09:1,2010-11-05T06:00:00Z,29.1015,-89.9782,1014.52,11111222 
WAVCIS,ioos:station:WAVCIS:CSI09:1,2010-11-05T07:00:00Z,29.1015,-89.9782,1014.86,11111222 
WAVCIS,ioos:station:WAVCIS:CSI09:1,2010-11-05T08:00:00Z,29.1015,-89.9782,1014.94,11111222 
WAVCIS,ioos:station:WAVCIS:CSI09:1,2010-11-05T09:00:00Z,29.1015,-89.9782,1014.72,11111222 
WAVCIS,ioos:station:WAVCIS:CSI09:1,2010-11-05T10:00:00Z,29.1015,-89.9782,1015.17,11111222 
WAVCIS,ioos:station:WAVCIS:CSI09:1,2010-11-05T11:00:00Z,29.1015,-89.9782,1015.43,11111222 
WAVCIS,ioos:station:WAVCIS:CSI09:1,2010-11-05T12:00:00Z,29.1015,-89.9782,1015.54,11111222 
WAVCIS,ioos:station:WAVCIS:CSI09:1,2010-11-05T13:00:00Z,29.1015,-89.9782,1016.59,11111222 
WAVCIS,ioos:station:WAVCIS:CSI09:1,2010-11-05T14:00:00Z,29.1015,-89.9782,1017.63,11111222 
WAVCIS,ioos:station:WAVCIS:CSI09:1,2010-11-05T15:00:00Z,29.1015,-89.9782,1018.07,11111222 
WAVCIS,ioos:station:WAVCIS:CSI09:1,2010-11-05T16:00:00Z,29.1015,-89.9782,1018.47,11111222 
WAVCIS,ioos:station:WAVCIS:CSI09:1,2010-11-05T17:00:00Z,29.1015,-89.9782,1018.32,11111222 
WAVCIS,ioos:station:WAVCIS:CSI09:1,2010-11-05T18:00:00Z,29.1015,-89.9782,1017.93,11111222 
WAVCIS,ioos:station:WAVCIS:CSI09:1,2010-11-05T19:00:00Z,29.1015,-89.9782,1017.2,11111222 
WAVCIS,ioos:station:WAVCIS:CSI09:1,2010-11-05T20:00:00Z,29.1015,-89.9782,1016.93,11111222 
WAVCIS,ioos:station:WAVCIS:CSI09:1,2010-11-05T21:00:00Z,29.1015,-89.9782,1016.92,11111222 
WAVCIS,ioos:station:WAVCIS:CSI09:1,2010-11-05T22:00:00Z,29.1015,-89.9782,1017.41,11111222 
WAVCIS,ioos:station:WAVCIS:CSI09:1,2010-11-05T23:00:00Z,29.1015,-89.9782,1018.2,11111222 
WAVCIS,ioos:station:WAVCIS:CSI09:1,2010-11-06T00:00:00Z,29.1015,-89.9782,1018.79,11111222 
WAVCIS,ioos:station:WAVCIS:CSI09:1,2010-11-06T01:00:00Z,29.1015,-89.9782,1019.82,11111222 
WAVCIS,ioos:station:WAVCIS:CSI09:1,2010-11-06T02:00:00Z,29.1015,-89.9782,1020.53,11111222 
WAVCIS,ioos:station:WAVCIS:CSI09:1,2010-11-06T03:00:00Z,29.1015,-89.9782,1021.56,11111222 
WAVCIS,ioos:station:WAVCIS:CSI09:1,2010-11-06T04:00:00Z,29.1015,-89.9782,1022.12,11111222 
WAVCIS,ioos:station:WAVCIS:CSI09:1,2010-11-06T05:00:00Z,29.1015,-89.9782,1022.44,11111222 
WAVCIS,ioos:station:WAVCIS:CSI09:1,2010-11-06T06:00:00Z,29.1015,-89.9782,1022.66,11111222 
WAVCIS,ioos:station:WAVCIS:CSI09:1,2010-11-06T07:00:00Z,29.1015,-89.9782,1022.88,11111222 
WAVCIS,ioos:station:WAVCIS:CSI09:1,2010-11-06T08:00:00Z,29.1015,-89.9782,1022.64,11111222 
WAVCIS,ioos:station:WAVCIS:CSI09:1,2010-11-06T09:00:00Z,29.1015,-89.9782,1023.27,11111222 
WAVCIS,ioos:station:WAVCIS:CSI09:1,2010-11-06T10:00:00Z,29.1015,-89.9782,1023.65,11111222 
WAVCIS,ioos:station:WAVCIS:CSI09:1,2010-11-06T11:00:00Z,29.1015,-89.9782,1024.27,11111222 
WAVCIS,ioos:station:WAVCIS:CSI09:1,2010-11-06T12:00:00Z,29.1015,-89.9782,1024.91,11111222 
WAVCIS,ioos:station:WAVCIS:CSI09:1,2010-11-06T13:00:00Z,29.1015,-89.9782,1025.73,11111222 
WAVCIS,ioos:station:WAVCIS:CSI09:1,2010-11-06T14:00:00Z,29.1015,-89.9782,1026.57,11111222 
WAVCIS,ioos:station:WAVCIS:CSI09:1,2010-11-06T15:00:00Z,29.1015,-89.9782,1027.05,11111222 
WAVCIS,ioos:station:WAVCIS:CSI09:1,2010-11-06T16:00:00Z,29.1015,-89.9782,1027.23,11111222 
WAVCIS,ioos:station:WAVCIS:CSI09:1,2010-11-06T17:00:00Z,29.1015,-89.9782,1027.03,11111222 
WAVCIS,ioos:station:WAVCIS:CSI09:1,2010-11-06T18:00:00Z,29.1015,-89.9782,1026.54,11111222 
WAVCIS,ioos:station:WAVCIS:CSI09:1,2010-11-06T19:00:00Z,29.1015,-89.9782,1026.02,11111222 
WAVCIS,ioos:station:WAVCIS:CSI09:1,2010-11-06T20:00:00Z,29.1015,-89.9782,1025.74,11111222 
WAVCIS,ioos:station:WAVCIS:CSI09:1,2010-11-06T21:00:00Z,29.1015,-89.9782,1025.56,11111222 
WAVCIS,ioos:station:WAVCIS:CSI09:1,2010-11-06T22:00:00Z,29.1015,-89.9782,1025.72,11111222 
WAVCIS,ioos:station:WAVCIS:CSI09:1,2010-11-06T23:00:00Z,29.1015,-89.9782,1025.96,11111222 
WAVCIS,ioos:station:WAVCIS:CSI09:1,2010-11-07T00:00:00Z,29.1015,-89.9782,1026.21,11111222 
WAVCIS,ioos:station:WAVCIS:CSI09:1,2010-11-07T01:00:00Z,29.1015,-89.9782,1026.49,11111222 
WAVCIS,ioos:station:WAVCIS:CSI09:1,2010-11-07T02:00:00Z,29.1015,-89.9782,1026.63,11111222 
WAVCIS,ioos:station:WAVCIS:CSI09:1,2010-11-07T03:00:00Z,29.1015,-89.9782,1027.33,11111222 
WAVCIS,ioos:station:WAVCIS:CSI09:1,2010-11-07T04:00:00Z,29.1015,-89.9782,1027.82,11111222 
WAVCIS,ioos:station:WAVCIS:CSI09:1,2010-11-07T05:00:00Z,29.1015,-89.9782,1027.56,11111222 
WAVCIS,ioos:station:WAVCIS:CSI09:1,2010-11-07T06:00:00Z,29.1015,-89.9782,1027.48,11111222 
WAVCIS,ioos:station:WAVCIS:CSI09:1,2010-11-07T07:00:00Z,29.1015,-89.9782,1027.37,11111222 
WAVCIS,ioos:station:WAVCIS:CSI09:1,2010-11-07T08:00:00Z,29.1015,-89.9782,1027.12,11111222 
WAVCIS,ioos:station:WAVCIS:CSI09:1,2010-11-07T09:00:00Z,29.1015,-89.9782,1026.97,11111222 
WAVCIS,ioos:station:WAVCIS:CSI09:1,2010-11-07T10:00:00Z,29.1015,-89.9782,1026.98,11111222 
WAVCIS,ioos:station:WAVCIS:CSI09:1,2010-11-07T11:00:00Z,29.1015,-89.9782,1027.28,11111222 
WAVCIS,ioos:station:WAVCIS:CSI09:1,2010-11-07T12:00:00Z,29.1015,-89.9782,1027.44,11111222 
WAVCIS,ioos:station:WAVCIS:CSI09:1,2010-11-07T13:00:00Z,29.1015,-89.9782,1027.93,11111222 
WAVCIS,ioos:station:WAVCIS:CSI09:1,2010-11-07T14:00:00Z,29.1015,-89.9782,1028.13,11111222 
WAVCIS,ioos:station:WAVCIS:CSI09:1,2010-11-07T15:00:00Z,29.1015,-89.9782,1028.35,11111222 
WAVCIS,ioos:station:WAVCIS:CSI09:1,2010-11-07T16:00:00Z,29.1015,-89.9782,1028.54,11111222 
WAVCIS,ioos:station:WAVCIS:CSI09:1,2010-11-07T17:00:00Z,29.1015,-89.9782,1028.14,11111222 
WAVCIS,ioos:station:WAVCIS:CSI09:1,2010-11-07T18:00:00Z,29.1015,-89.9782,1027.18,11111222 
WAVCIS,ioos:station:WAVCIS:CSI09:1,2010-11-07T19:00:00Z,29.1015,-89.9782,1025.98,11111222 
WAVCIS,ioos:station:WAVCIS:CSI09:1,2010-11-07T20:00:00Z,29.1015,-89.9782,1025.57,11111222 
WAVCIS,ioos:station:WAVCIS:CSI09:1,2010-11-07T21:00:00Z,29.1015,-89.9782,1024.92,11111222 
WAVCIS,ioos:station:WAVCIS:CSI09:1,2010-11-07T22:00:00Z,29.1015,-89.9782,1024.87,11111222 
WAVCIS,ioos:station:WAVCIS:CSI09:1,2010-11-07T23:00:00Z,29.1015,-89.9782,1024.8,11111222 
WAVCIS,ioos:station:WAVCIS:CSI09:1,2010-11-08T00:00:00Z,29.1015,-89.9782,1024.8,11111222 
WAVCIS,ioos:station:WAVCIS:CSI09:1,2010-11-08T01:00:00Z,29.1015,-89.9782,1024.9,11111222 
WAVCIS,ioos:station:WAVCIS:CSI09:1,2010-11-08T02:00:00Z,29.1015,-89.9782,1024.75,11111222 
WAVCIS,ioos:station:WAVCIS:CSI09:1,2010-11-08T03:00:00Z,29.1015,-89.9782,1024.54,11111222 
WAVCIS,ioos:station:WAVCIS:CSI09:1,2010-11-08T04:00:00Z,29.1015,-89.9782,1024.24,11111222 
WAVCIS,ioos:station:WAVCIS:CSI09:1,2010-11-08T05:00:00Z,29.1015,-89.9782,1023.92,11111222 
WAVCIS,ioos:station:WAVCIS:CSI09:1,2010-11-08T06:00:00Z,29.1015,-89.9782,1023.11,11111222 
WAVCIS,ioos:station:WAVCIS:CSI09:1,2010-11-08T07:00:00Z,29.1015,-89.9782,1022.49,11111222 
WAVCIS,ioos:station:WAVCIS:CSI09:1,2010-11-08T08:00:00Z,29.1015,-89.9782,1022.0,11111222 
WAVCIS,ioos:station:WAVCIS:CSI09:1,2010-11-08T09:00:00Z,29.1015,-89.9782,1021.74,11111222 
WAVCIS,ioos:station:WAVCIS:CSI09:1,2010-11-08T10:00:00Z,29.1015,-89.9782,1021.69,11111222 
WAVCIS,ioos:station:WAVCIS:CSI09:1,2010-11-08T11:00:00Z,29.1015,-89.9782,1021.46,11111222 
WAVCIS,ioos:station:WAVCIS:CSI09:1,2010-11-08T12:00:00Z,29.1015,-89.9782,1021.63,11111222 
WAVCIS,ioos:station:WAVCIS:CSI09:1,2010-11-08T13:00:00Z,29.1015,-89.9782,1021.86,11111222 
WAVCIS,ioos:station:WAVCIS:CSI09:1,2010-11-08T14:00:00Z,29.1015,-89.9782,1022.44,11111222 
WAVCIS,ioos:station:WAVCIS:CSI09:1,2010-11-08T15:00:00Z,29.1015,-89.9782,1022.51,11111222 
WAVCIS,ioos:station:WAVCIS:CSI09:1,2010-11-08T16:00:00Z,29.1015,-89.9782,1022.51,11111222 
WAVCIS,ioos:station:WAVCIS:CSI09:1,2010-11-08T17:00:00Z,29.1015,-89.9782,1021.95,11111222 
WAVCIS,ioos:station:WAVCIS:CSI09:1,2010-11-08T18:00:00Z,29.1015,-89.9782,1021.1,11111222 
WAVCIS,ioos:station:WAVCIS:CSI09:1,2010-11-08T19:00:00Z,29.1015,-89.9782,1020.14,11111222 
WAVCIS,ioos:station:WAVCIS:CSI09:1,2010-11-08T20:00:00Z,29.1015,-89.9782,1019.39,11111222 
WAVCIS,ioos:station:WAVCIS:CSI09:1,2010-11-08T21:00:00Z,29.1015,-89.9782,1018.8,11111222 
WAVCIS,ioos:station:WAVCIS:CSI09:1,2010-11-08T22:00:00Z,29.1015,-89.9782,1018.66,11111222 
WAVCIS,ioos:station:WAVCIS:CSI09:1,2010-11-08T23:00:00Z,29.1015,-89.9782,1018.58,11111222 
WAVCIS,ioos:station:WAVCIS:CSI09:1,2010-11-09T00:00:00Z,29.1015,-89.9782,1018.5,11111222 
WAVCIS,ioos:station:WAVCIS:CSI09:1,2010-11-09T01:00:00Z,29.1015,-89.9782,1018.56,11111222 
WAVCIS,ioos:station:WAVCIS:CSI09:1,2010-11-09T02:00:00Z,29.1015,-89.9782,1018.55,11111222 
WAVCIS,ioos:station:WAVCIS:CSI09:1,2010-11-09T03:00:00Z,29.1015,-89.9782,1018.43,11111222 
WAVCIS,ioos:station:WAVCIS:CSI09:1,2010-11-09T04:00:00Z,29.1015,-89.9782,1018.2,11111222 
WAVCIS,ioos:station:WAVCIS:CSI09:1,2010-11-09T05:00:00Z,29.1015,-89.9782,1018.01,11111222 
WAVCIS,ioos:station:WAVCIS:CSI09:1,2010-11-09T06:00:00Z,29.1015,-89.9782,1017.94,11111222 
WAVCIS,ioos:station:WAVCIS:CSI09:1,2010-11-09T07:00:00Z,29.1015,-89.9782,1017.74,11111222 
WAVCIS,ioos:station:WAVCIS:CSI09:1,2010-11-09T08:00:00Z,29.1015,-89.9782,1017.13,11111222 
WAVCIS,ioos:station:WAVCIS:CSI09:1,2010-11-09T09:00:00Z,29.1015,-89.9782,1017.04,11111222 
WAVCIS,ioos:station:WAVCIS:CSI09:1,2010-11-09T10:00:00Z,29.1015,-89.9782,1016.91,11111222 
WAVCIS,ioos:station:WAVCIS:CSI09:1,2010-11-09T11:00:00Z,29.1015,-89.9782,1017.09,11111222 
WAVCIS,ioos:station:WAVCIS:CSI09:1,2010-11-09T12:00:00Z,29.1015,-89.9782,1017.25,11111222 
WAVCIS,ioos:station:WAVCIS:CSI09:1,2010-11-09T13:00:00Z,29.1015,-89.9782,1017.55,11111222 
WAVCIS,ioos:station:WAVCIS:CSI09:1,2010-11-09T14:00:00Z,29.1015,-89.9782,1018.09,11111222 
WAVCIS,ioos:station:WAVCIS:CSI09:1,2010-11-09T15:00:00Z,29.1015,-89.9782,1018.61,11111222 
WAVCIS,ioos:station:WAVCIS:CSI09:1,2010-11-09T16:00:00Z,29.1015,-89.9782,1018.72,11111222 
WAVCIS,ioos:station:WAVCIS:CSI09:1,2010-11-09T17:00:00Z,29.1015,-89.9782,1018.29,11111222 
WAVCIS,ioos:station:WAVCIS:CSI09:1,2010-11-09T18:00:00Z,29.1015,-89.9782,1017.18,11111222 
WAVCIS,ioos:station:WAVCIS:CSI09:1,2010-11-09T19:00:00Z,29.1015,-89.9782,1016.68,11111222 
WAVCIS,ioos:station:WAVCIS:CSI09:1,2010-11-09T20:00:00Z,29.1015,-89.9782,1016.05,11111222 
WAVCIS,ioos:station:WAVCIS:CSI09:1,2010-11-09T21:00:00Z,29.1015,-89.9782,1015.75,11111222 
WAVCIS,ioos:station:WAVCIS:CSI09:1,2010-11-09T22:00:00Z,29.1015,-89.9782,1015.45,11111222 
WAVCIS,ioos:station:WAVCIS:CSI09:1,2010-11-09T23:00:00Z,29.1015,-89.9782,1015.5,11111222 
WAVCIS,ioos:station:WAVCIS:CSI09:1,2010-11-10T00:00:00Z,29.1015,-89.9782,1015.61,11111222 
WAVCIS,ioos:station:WAVCIS:CSI09:1,2010-11-10T01:00:00Z,29.1015,-89.9782,1015.71,11111222 
WAVCIS,ioos:station:WAVCIS:CSI09:1,2010-11-10T02:00:00Z,29.1015,-89.9782,1016.14,11111222 
WAVCIS,ioos:station:WAVCIS:CSI09:1,2010-11-10T03:00:00Z,29.1015,-89.9782,1016.35,11111222 
WAVCIS,ioos:station:WAVCIS:CSI09:1,2010-11-10T04:00:00Z,29.1015,-89.9782,1016.29,11111222 
WAVCIS,ioos:station:WAVCIS:CSI09:1,2010-11-10T05:00:00Z,29.1015,-89.9782,1016.28,11111222 
WAVCIS,ioos:station:WAVCIS:CSI09:1,2010-11-10T06:00:00Z,29.1015,-89.9782,1015.99,11111222 
WAVCIS,ioos:station:WAVCIS:CSI09:1,2010-11-10T07:00:00Z,29.1015,-89.9782,1015.7,11111222 
WAVCIS,ioos:station:WAVCIS:CSI09:1,2010-11-10T08:00:00Z,29.1015,-89.9782,1015.49,11111222 
WAVCIS,ioos:station:WAVCIS:CSI09:1,2010-11-10T09:00:00Z,29.1015,-89.9782,1015.8,11111222 
WAVCIS,ioos:station:WAVCIS:CSI09:1,2010-11-10T10:00:00Z,29.1015,-89.9782,1015.68,11111222 
WAVCIS,ioos:station:WAVCIS:CSI09:1,2010-11-10T11:00:00Z,29.1015,-89.9782,1016.3,11111222 
WAVCIS,ioos:station:WAVCIS:CSI09:1,2010-11-10T12:00:00Z,29.1015,-89.9782,1016.66,11111222 
WAVCIS,ioos:station:WAVCIS:CSI09:1,2010-11-10T13:00:00Z,29.1015,-89.9782,1017.27,11111222 
WAVCIS,ioos:station:WAVCIS:CSI09:1,2010-11-10T14:00:00Z,29.1015,-89.9782,1017.81,11111222 
WAVCIS,ioos:station:WAVCIS:CSI09:1,2010-11-10T15:00:00Z,29.1015,-89.9782,1018.16,11111222 
WAVCIS,ioos:station:WAVCIS:CSI09:1,2010-11-10T16:00:00Z,29.1015,-89.9782,1018.57,11111222 
WAVCIS,ioos:station:WAVCIS:CSI09:1,2010-11-10T17:00:00Z,29.1015,-89.9782,1018.13,11111222 
WAVCIS,ioos:station:WAVCIS:CSI09:1,2010-11-10T18:00:00Z,29.1015,-89.9782,1017.72,11111222 
WAVCIS,ioos:station:WAVCIS:CSI09:1,2010-11-10T19:00:00Z,29.1015,-89.9782,1017.64,11111222 
WAVCIS,ioos:station:WAVCIS:CSI09:1,2010-11-10T20:00:00Z,29.1015,-89.9782,1017.42,11111222 
WAVCIS,ioos:station:WAVCIS:CSI09:1,2010-11-10T21:00:00Z,29.1015,-89.9782,1017.4,11111222 
WAVCIS,ioos:station:WAVCIS:CSI09:1,2010-11-10T22:00:00Z,29.1015,-89.9782,1017.29,11111222 
WAVCIS,ioos:station:WAVCIS:CSI09:1,2010-11-10T23:00:00Z,29.1015,-89.9782,1017.56,11111222 
WAVCIS,ioos:station:WAVCIS:CSI09:1,2010-11-11T00:00:00Z,29.1015,-89.9782,1018.13,11111222 
WAVCIS,ioos:station:WAVCIS:CSI09:1,2010-11-11T01:00:00Z,29.1015,-89.9782,1018.86,11111222 
WAVCIS,ioos:station:WAVCIS:CSI09:1,2010-11-11T02:00:00Z,29.1015,-89.9782,1019.12,11111222 
WAVCIS,ioos:station:WAVCIS:CSI09:1,2010-11-11T03:00:00Z,29.1015,-89.9782,1019.47,11111222 
WAVCIS,ioos:station:WAVCIS:CSI09:1,2010-11-11T04:00:00Z,29.1015,-89.9782,1019.56,11111222 
WAVCIS,ioos:station:WAVCIS:CSI09:1,2010-11-11T05:00:00Z,29.1015,-89.9782,1019.64,11111222 
WAVCIS,ioos:station:WAVCIS:CSI09:1,2010-11-11T06:00:00Z,29.1015,-89.9782,1019.63,11111222 
WAVCIS,ioos:station:WAVCIS:CSI09:1,2010-11-11T07:00:00Z,29.1015,-89.9782,1019.61,11111222 
WAVCIS,ioos:station:WAVCIS:CSI09:1,2010-11-11T08:00:00Z,29.1015,-89.9782,1019.58,11111222 
WAVCIS,ioos:station:WAVCIS:CSI09:1,2010-11-11T09:00:00Z,29.1015,-89.9782,1019.72,11111222 
WAVCIS,ioos:station:WAVCIS:CSI09:1,2010-11-11T10:00:00Z,29.1015,-89.9782,1019.84,11111222 
WAVCIS,ioos:station:WAVCIS:CSI09:1,2010-11-11T11:00:00Z,29.1015,-89.9782,1020.45,11111222 
WAVCIS,ioos:station:WAVCIS:CSI09:1,2010-11-11T12:00:00Z,29.1015,-89.9782,1020.93,11111222 
WAVCIS,ioos:station:WAVCIS:CSI09:1,2010-11-11T13:00:00Z,29.1015,-89.9782,1021.45,11111222 
WAVCIS,ioos:station:WAVCIS:CSI09:1,2010-11-11T14:00:00Z,29.1015,-89.9782,1022.21,11111222 
WAVCIS,ioos:station:WAVCIS:CSI09:1,2010-11-11T15:00:00Z,29.1015,-89.9782,1022.85,11111222 
WAVCIS,ioos:station:WAVCIS:CSI09:1,2010-11-11T16:00:00Z,29.1015,-89.9782,1023.28,11111222 
WAVCIS,ioos:station:WAVCIS:CSI09:1,2010-11-11T17:00:00Z,29.1015,-89.9782,1023.16,11111222 
WAVCIS,ioos:station:WAVCIS:CSI09:1,2010-11-11T18:00:00Z,29.1015,-89.9782,1022.74,11111222 
WAVCIS,ioos:station:WAVCIS:CSI09:1,2010-11-11T19:00:00Z,29.1015,-89.9782,1022.07,11111222 
WAVCIS,ioos:station:WAVCIS:CSI09:1,2010-11-11T20:00:00Z,29.1015,-89.9782,1021.79,11111222 
WAVCIS,ioos:station:WAVCIS:CSI09:1,2010-11-11T21:00:00Z,29.1015,-89.9782,1021.74,11111222 
WAVCIS,ioos:station:WAVCIS:CSI09:1,2010-11-11T22:00:00Z,29.1015,-89.9782,1021.82,11111222 